Powrót do katalogu

YAM-12

AktywnyNaukaSSO
NORAD 69003·PAYLOAD·🇺🇸 United States

Wystrzelony May 3, 2026 z Vandenberg Space Force Base

Loading…

Następne Przeloty (najbliższe 24 godziny)

TLE

ŚwieżeSource: Space-Track

Epoka: Sep 14, 2026, 11:00 UTC

1 69003U 26100Z   26257.45858426  .00001215  00000-0  13003-3 0  9990
2 69003  97.7761 153.3169 0001609  74.5798 285.5598 14.90531011 19985

Śledź YAM-12 w czasie rzeczywistym z AllMySat

Download on the App Store